Tracking 27112 objects as of 28-Mar-2023
HD Live streaming from Space Station
objects crossing your sky now

METEOR 1-14

Track METEOR 1-14 now!
10-day predictions
METEOR 1-14 is classified as:


NORAD ID: 6392
Int'l Code: 1973-015A
Perigee: 834.6 km
Apogee: 914.3 km
Inclination: 81.2 °
Period: 102.3 minutes
Semi major axis: 7245 km
RCS: 4.8967 m2 (large)
Launch date: March 20, 1973
Source: Commonwealth of Independent States (former USSR) (CIS)
Launch site: PLESETSK MISSILE AND SPACE COMPLEX (PKMTR)
Your satellite tracking list
Your tracking list is empty




NASA's NSSDC Master Catalog

Two Line Element Set (TLE):
1 06392U 73015A   23086.87999501  .00000153  00000-0  82710-4 0  9994
2 06392  81.2368 351.2731 0055047 272.8610  86.6260 14.07681157567038
Source of the keplerian elements: AFSPC